Theta_e
304 304 304 305 305 305 306 306 306 307 306 307 310 313 319 323 314 305 307 308 306 311 314 312 312 311 306 304 304 305 307 306 304 306 306 305 306 307 305 303 304 305 304 307 306 303 304 305 304 304 303 304 304 300 298 298 298 299 302 301 298 299 300 301 301 300 299 299 298 297 298 299 299 300 299 299 301 300 298 297 297 296 295 295 294 295 294
304 305 305 306 306 306 306 305 305 306 306 306 310 318 325 322 311 307 307 306 310 318 319 316 312 308 306 305 304 305 307 308 308 307 307 305 304 306 306 304 303 304 305 306 307 304 301 303 303 301 302 303 300 298 298 298 299 301 301 299 297 299 302 301 299 298 298 298 297 296 297 297 297 300 299 298 298 298 298 297 295 295 295 294 294 294 293
305 306 305 306 306 305 305 304 305 305 305 305 309 315 322 319 313 313 310 304 310 318 317 317 315 310 310 308 306 307 307 305 307 307 305 304 303 304 306 304 303 305 305 305 307 305 301 301 302 300 301 302 300 300 298 297 300 301 299 298 298 300 303 300 297 298 298 298 298 298 298 296 295 296 297 297 297 296 297 297 295 295 295 293 293 293 292
305 306 305 306 306 305 305 305 306 305 304 306 309 309 314 319 316 319 316 308 309 312 312 317 318 313 314 310 304 307 308 304 305 307 305 305 304 305 305 303 301 304 306 307 309 307 302 301 302 301 303 304 302 301 300 298 299 299 298 297 297 301 303 300 299 300 298 298 297 297 296 294 294 295 295 297 298 296 296 296 295 295 295 293 293 293 292
306 306 306 307 306 305 305 305 306 305 303 307 310 307 312 320 314 312 314 312 315 318 315 318 317 313 316 311 303 306 308 304 305 305 304 305 305 305 305 304 302 303 303 305 309 308 303 301 301 300 302 304 302 299 300 300 299 299 299 297 296 297 300 300 301 300 298 297 295 294 295 293 293 294 295 296 297 296 295 295 295 294 294 293 293 292 291
306 305 305 305 305 305 305 305 304 305 303 307 312 309 309 315 311 306 308 310 317 318 313 314 315 313 315 310 303 307 309 308 309 306 304 305 304 304 306 305 304 302 301 303 308 308 304 303 304 301 300 303 303 300 300 299 299 299 298 295 294 294 298 300 298 297 297 297 295 294 294 293 293 295 294 294 296 296 295 295 294 293 293 294 293 291 288
305 305 305 304 305 305 305 305 305 305 306 307 311 310 306 309 310 305 306 309 310 307 306 312 315 313 314 312 305 307 311 310 309 306 306 307 304 302 306 308 306 305 304 304 306 305 302 302 305 302 300 301 302 302 301 299 298 298 297 296 294 294 300 301 297 297 297 295 296 295 294 294 294 293 293 292 293 296 295 294 293 292 292 291 290 288 287
304 305 305 304 306 305 304 305 305 307 309 308 309 309 307 311 312 307 310 312 307 304 306 313 316 312 312 312 305 306 311 310 307 306 306 308 307 304 306 307 308 308 307 305 304 304 302 301 302 301 300 300 302 301 300 299 298 297 298 299 296 294 299 301 297 297 296 294 296 295 293 293 292 291 292 292 292 294 294 293 291 290 289 288 286 287 287
304 305 305 304 306 305 304 305 304 306 309 307 308 307 305 308 308 305 311 312 306 307 307 310 317 316 312 311 306 307 311 309 307 307 304 305 309 307 305 306 308 308 307 306 306 305 303 302 302 301 299 301 301 299 298 298 299 300 299 300 297 294 297 300 297 296 295 294 294 294 292 292 294 295 295 293 293 294 293 292 290 288 287 287 287 287 287
304 305 305 304 305 304 304 305 304 306 309 306 307 305 303 305 304 305 314 311 305 308 310 312 319 315 308 309 309 309 310 307 306 306 304 305 307 306 304 305 306 307 307 306 305 303 301 301 301 299 299 299 299 298 298 297 298 301 301 298 297 295 295 298 297 296 296 294 292 292 292 293 297 299 295 292 292 291 289 289 288 286 286 286 287 287 286
304 305 305 304 305 304 305 305 304 306 308 307 305 303 304 308 308 315 328 318 303 307 313 314 315 310 305 308 308 307 308 308 307 305 304 306 305 303 304 304 303 306 305 301 298 297 297 298 298 297 298 298 298 299 300 297 297 300 300 298 297 296 296 297 296 295 297 296 292 292 293 295 297 294 290 289 289 287 286 286 285 285 286 286 286 286 285
304 304 304 305 305 305 305 305 305 307 308 308 306 304 307 310 311 324 344 327 306 309 315 308 305 307 306 306 309 309 309 309 308 305 304 307 306 303 304 304 303 304 300 296 296 296 295 297 298 298 298 299 299 299 299 298 297 296 297 298 298 297 297 298 296 295 297 297 294 293 295 296 294 290 287 288 287 285 285 285 285 286 286 285 285 285 284
305 305 305 305 305 305 305 305 305 306 306 306 306 305 309 310 310 321 339 328 308 309 313 304 299 303 307 307 308 308 306 305 305 304 305 306 305 305 304 303 303 300 295 295 297 297 298 300 301 300 300 299 298 298 299 299 298 296 296 297 296 295 295 295 295 296 297 295 294 294 294 294 293 289 287 287 286 286 285 286 287 286 285 284 284 284 284
305 305 306 305 305 305 305 305 305 305 305 305 305 305 306 309 312 318 327 325 310 302 305 304 302 303 305 306 308 306 304 304 302 302 303 305 307 307 303 299 298 296 294 296 298 297 299 302 303 303 303 302 300 300 300 299 298 297 297 296 294 294 295 294 294 295 294 294 295 293 292 293 294 292 289 287 286 285 285 286 287 285 284 284 284 284 284
306 306 306 306 305 306 305 305 305 304 305 304 304 305 304 306 311 311 313 319 315 304 303 306 305 305 307 307 307 307 309 309 305 302 302 303 304 304 298 294 295 294 294 297 300 300 300 301 302 303 305 303 301 300 300 299 298 296 295 296 294 293 292 293 294 295 294 293 294 293 293 294 293 291 289 287 287 286 285 285 286 285 284 284 284 283 284
305 305 306 305 305 305 304 306 305 304 305 304 303 305 305 306 309 305 304 313 320 311 305 302 301 305 308 306 304 304 306 308 307 306 308 307 305 301 295 292 294 295 296 299 300 299 300 301 300 301 303 301 298 298 299 299 298 295 293 294 294 293 293 293 294 295 294 293 293 293 294 294 291 288 287 288 288 286 285 286 286 285 284 284 284 283 283
305 305 305 304 305 305 304 305 305 304 305 304 304 306 305 305 307 304 306 315 320 310 300 296 299 305 307 306 306 305 304 305 304 305 307 306 305 303 299 294 294 295 297 300 302 301 302 304 301 301 304 302 297 297 299 297 297 297 295 294 295 296 296 295 295 296 295 294 294 294 293 292 290 289 288 287 286 285 286 287 288 286 284 284 284 283 283
305 304 305 305 304 305 304 304 305 305 305 305 305 306 305 305 307 304 308 317 320 308 296 293 300 306 306 305 305 304 304 304 304 305 307 305 303 305 304 300 298 298 297 299 302 302 302 303 301 300 303 302 297 297 298 297 296 297 297 297 299 301 299 295 295 296 295 294 294 294 294 293 290 289 288 287 286 287 287 288 287 284 284 284 283 283 283
304 305 305 305 304 305 305 304 304 305 305 306 307 305 303 305 306 302 307 315 316 308 297 292 297 301 298 298 302 303 302 301 303 307 308 306 302 301 301 300 298 298 298 299 302 302 301 303 301 299 302 304 300 297 297 297 298 297 296 297 298 299 298 296 295 295 294 294 293 293 294 292 288 288 288 287 287 288 287 286 285 284 284 283 283 282 282
304 304 304 305 305 304 304 304 304 304 304 304 306 305 301 302 305 303 306 309 303 300 295 291 293 295 293 295 303 305 304 303 305 306 304 303 302 300 302 303 300 300 301 300 302 302 300 301 301 299 300 303 300 297 298 299 299 296 295 297 297 294 295 297 297 295 293 293 293 292 293 291 286 286 288 287 287 287 286 284 284 284 283 283 282 282 282
303 304 303 304 304 304 304 304 303 304 304 303 304 304 301 300 302 303 302 303 301 301 298 293 291 292 290 291 293 296 300 300 302 303 302 303 302 300 300 302 300 300 300 298 300 302 299 299 301 300 300 301 298 297 297 298 299 296 292 295 297 294 293 295 295 294 293 292 292 293 293 290 286 286 287 287 286 286 285 283 283 283 283 282 282 282 282
303 303 303 303 303 303 304 304 303 303 304 303 304 304 301 298 299 301 301 301 298 298 296 291 290 290 289 290 290 291 293 293 293 295 298 303 305 301 301 303 300 298 298 297 300 303 300 299 300 299 300 300 298 298 297 297 300 299 295 295 296 294 293 293 293 294 294 292 291 291 290 288 287 287 287 287 286 285 284 283 283 283 282 282 282 282 282
302 303 303 303 303 303 303 303 303 303 302 303 304 303 301 298 298 300 300 299 293 293 293 291 292 293 291 291 291 291 291 291 291 290 291 299 304 300 299 301 298 296 298 297 298 300 300 299 298 298 299 298 296 298 300 298 299 297 295 296 295 291 290 291 291 292 292 290 290 290 289 288 287 287 287 286 285 284 284 283 283 282 282 282 282 282 282
302 302 302 302 302 302 303 302 302 302 302 302 304 302 300 300 299 299 299 298 297 300 298 294 295 296 293 292 292 291 291 291 291 290 289 293 299 299 298 297 295 296 299 296 294 296 297 297 298 298 299 298 296 297 298 298 298 295 294 296 295 290 289 290 290 290 289 289 290 290 288 287 287 287 287 286 285 284 283 283 283 282 282 282 282 281 281
301 301 301 302 302 301 302 301 302 302 302 301 302 302 302 302 301 302 303 303 305 309 307 300 296 293 292 292 292 291 292 292 292 291 290 290 293 298 298 295 293 295 296 293 293 296 297 298 299 299 298 297 296 296 296 297 296 294 293 295 295 291 290 289 289 288 288 288 289 288 287 287 287 286 286 285 284 284 283 282 282 282 282 282 282 281 281
301 301 300 301 301 301 301 301 301 301 301 301 302 302 302 302 302 302 303 303 303 307 309 304 297 292 292 293 292 290 291 292 292 292 291 290 290 291 292 292 293 294 293 292 294 297 298 298 298 298 297 296 295 295 296 296 295 293 294 294 293 291 291 290 288 288 288 288 288 287 286 286 286 286 285 284 284 283 282 282 282 282 282 282 281 281 281
300 300 301 301 301 301 301 301 301 301 301 301 301 301 300 301 301 301 301 302 304 309 312 306 298 294 292 291 290 290 290 291 292 292 291 291 290 290 290 292 293 294 295 295 295 296 298 299 298 297 296 295 294 294 294 294 294 294 294 294 291 289 289 288 288 288 288 287 287 286 285 285 285 285 285 284 283 283 282 282 282 281 281 281 281 281 281
300 301 301 301 301 301 301 301 301 301 300 301 301 301 300 300 300 300 301 302 304 307 309 304 298 296 295 293 291 291 290 290 291 292 291 291 291 291 291 292 293 295 297 297 296 297 299 299 298 297 296 294 295 296 296 295 296 296 295 292 289 288 288 287 287 287 287 286 286 285 285 284 284 284 284 283 283 282 282 282 281 281 281 281 280 280 280
300 301 300 301 302 301 301 301 301 300 301 301 300 300 300 299 299 300 301 300 300 301 301 302 299 297 297 296 292 291 291 291 290 291 292 292 293 293 292 293 294 294 295 296 298 299 299 296 296 296 294 292 294 296 296 295 296 295 293 291 289 289 288 287 287 286 286 286 286 285 284 284 284 284 284 283 282 282 282 281 281 281 281 280 280 279 278
300 300 300 300 301 301 301 302 301 301 301 300 301 307 309 303 298 298 300 301 300 301 304 308 304 297 295 294 293 293 292 291 290 291 292 293 293 293 293 293 292 292 294 296 297 298 298 296 295 294 292 291 293 295 295 294 295 295 292 290 289 288 288 288 287 287 286 285 285 284 284 284 284 284 283 283 283 282 281 281 281 281 280 280 279 278 278
300 300 299 299 300 300 301 302 301 302 302 301 303 312 315 306 299 298 299 301 300 301 304 306 301 296 296 295 293 292 292 291 291 291 291 292 293 292 292 293 293 293 296 298 297 297 298 297 296 294 292 293 295 295 294 294 295 295 293 291 289 288 288 288 287 286 285 285 285 284 284 284 284 283 283 283 282 282 281 281 281 280 280 279 278 277 277
300 300 300 299 299 299 300 300 301 302 303 301 301 303 302 299 298 298 299 300 299 302 309 309 301 298 301 299 292 291 292 291 290 291 292 292 292 292 292 292 293 294 295 297 298 298 296 296 296 295 292 292 294 294 294 294 293 292 291 290 289 288 288 287 286 285 284 284 284 284 284 284 283 283 283 282 282 282 282 282 281 280 279 278 277 276 275
300 300 300 299 299 299 299 300 300 301 301 299 298 298 297 298 299 298 299 300 298 299 307 311 304 300 301 298 293 292 293 293 292 293 293 292 290 292 294 293 292 293 294 295 297 296 294 295 296 294 291 290 292 293 294 294 293 291 290 289 289 288 287 286 286 285 284 283 284 284 283 283 283 283 282 282 282 282 282 281 280 278 277 276 275 275 274
300 300 300 300 299 299 299 299 300 300 300 298 298 298 297 298 298 298 299 300 299 298 302 305 306 306 303 300 298 295 293 295 297 297 295 292 290 292 295 294 293 295 294 294 295 296 295 295 295 293 292 291 293 294 295 293 291 290 289 289 288 287 286 286 285 285 284 283 283 283 283 283 283 283 282 282 282 282 281 280 279 277 275 275 274 274 273
300 300 299 299 300 300 300 299 299 299 299 298 297 297 298 298 298 299 299 299 303 306 304 301 305 308 306 306 307 300 293 294 297 296 294 293 291 291 294 295 296 295 293 293 294 296 295 293 292 293 294 293 293 295 294 291 289 289 288 288 287 286 285 285 284 284 284 283 283 283 283 283 282 282 282 282 281 281 280 279 277 276 274 274 273 273 273
300 300 299 299 300 300 300 300 299 299 298 298 297 297 298 298 298 299 299 298 301 306 305 303 304 302 299 301 304 298 293 296 298 295 294 295 293 292 293 296 297 295 293 293 295 295 293 291 291 295 296 293 293 295 293 289 289 289 288 288 287 286 285 284 284 283 283 283 283 283 283 282 282 282 282 281 281 280 279 277 276 274 273 273 272 272 272
300 300 300 299 300 301 300 298 298 298 298 297 297 297 298 298 298 298 298 298 297 297 299 303 303 297 293 296 298 294 294 297 297 295 296 297 295 294 295 297 298 296 294 294 295 293 291 291 292 295 295 294 293 294 293 290 290 289 288 288 287 286 284 284 283 283 283 283 283 283 282 282 282 281 281 280 280 278 277 276 274 273 273 272 272 271 271
301 300 300 300 303 305 304 299 297 298 297 296 299 300 298 299 302 302 299 298 298 295 295 299 299 294 293 297 298 294 293 295 296 297 296 295 295 295 296 297 297 295 295 295 292 289 290 293 292 293 295 295 293 292 291 291 290 290 288 287 286 284 283 283 283 283 283 282 282 282 282 282 281 280 280 279 278 277 276 275 273 272 272 271 271 270 270
301 300 299 301 303 304 302 297 296 298 297 295 299 302 300 299 304 304 300 298 299 298 296 298 296 293 294 298 298 294 291 292 296 298 296 295 295 295 296 296 295 294 295 296 291 288 291 295 293 292 294 294 290 288 289 290 289 287 286 285 284 284 283 283 282 282 282 282 282 282 282 281 280 279 279 278 276 275 274 273 272 272 271 270 270 269 269
300 299 300 302 301 299 298 297 296 298 298 298 300 303 302 301 301 299 300 302 302 297 295 295 293 290 290 292 295 294 291 290 293 294 294 295 294 292 293 295 293 293 296 296 291 290 292 294 292 293 294 292 288 287 288 288 287 285 284 284 284 284 283 282 282 282 282 281 281 281 281 280 279 279 278 276 274 273 273 272 271 271 270 269 269 268 267
300 299 300 300 300 297 297 298 297 297 299 301 303 302 301 301 298 294 298 304 302 296 292 292 293 294 292 290 292 294 292 290 289 290 292 294 293 291 293 294 291 293 297 294 290 291 294 293 293 296 294 289 287 286 286 286 286 285 284 284 283 283 283 282 282 281 281 280 280 280 279 279 278 277 276 274 273 272 271 271 270 270 269 268 267 266 266
299 299 298 298 298 297 298 299 299 298 300 304 304 300 298 300 299 297 298 299 297 294 293 292 292 293 292 289 289 291 289 288 288 289 292 294 293 291 292 292 291 294 297 292 289 291 294 294 297 298 292 287 286 286 285 285 285 284 284 284 283 283 282 281 281 281 280 279 279 279 278 278 276 275 274 273 272 271 270 270 269 269 268 267 266 265 264
298 298 297 298 298 298 300 301 300 299 302 305 303 301 301 301 300 298 298 296 294 294 294 291 290 292 291 288 287 288 287 287 289 290 291 293 292 291 292 294 294 294 293 289 290 294 295 296 299 297 290 286 286 286 285 284 284 283 283 283 283 282 282 281 280 280 279 278 278 278 277 276 274 273 272 271 270 270 270 269 268 268 267 266 264 264 264
298 298 299 300 300 299 301 301 299 300 302 302 301 302 303 302 300 300 300 298 296 295 294 291 291 294 294 290 289 290 290 289 289 290 290 290 290 291 294 296 294 292 290 290 293 295 295 296 297 294 289 286 286 285 285 284 283 282 283 283 282 281 281 280 279 279 278 278 277 276 275 274 273 272 271 270 270 269 269 268 267 266 265 264 263 263 263
300 301 304 305 302 299 301 302 302 301 301 301 303 305 304 301 303 304 299 294 292 294 294 291 291 293 294 291 289 289 290 290 290 290 290 289 291 293 294 293 291 290 292 293 294 294 296 296 294 290 288 287 286 285 284 284 283 282 282 281 281 280 280 279 279 278 278 277 276 274 273 272 271 271 270 269 269 269 268 267 266 265 264 263 263 263 262
300 301 305 306 302 299 301 303 303 302 300 300 302 304 302 301 302 299 292 288 291 294 293 290 290 292 293 292 289 289 289 290 290 289 288 290 294 294 291 289 290 293 294 295 296 298 301 299 293 290 288 287 286 285 284 283 282 282 281 280 280 280 279 278 278 278 277 276 274 273 272 271 270 270 269 269 268 268 267 266 265 264 263 262 262 262 262
299 299 303 306 303 301 302 302 300 298 298 297 296 296 294 293 293 291 286 285 289 290 288 288 288 289 289 289 289 289 289 289 290 289 288 290 293 293 290 290 293 295 294 296 301 303 302 296 292 290 288 286 285 286 284 282 281 281 280 279 279 279 278 277 277 276 275 274 273 272 271 270 270 269 268 268 268 267 266 265 265 263 262 262 262 262 261
301 299 301 303 302 301 302 300 296 295 295 292 289 287 285 287 292 292 287 283 284 287 288 289 290 290 289 288 289 290 290 289 290 290 288 289 292 294 294 296 297 295 294 297 302 302 299 294 292 290 288 286 286 286 284 282 281 280 279 278 278 278 277 277 276 275 274 273 272 271 270 269 269 268 267 267 267 266 265 265 264 263 262 262 262 261 260
298 299 300 299 298 299 298 295 296 299 298 292 288 286 286 291 297 294 286 282 284 287 286 286 288 291 291 289 289 291 291 290 290 290 289 291 295 296 296 298 300 300 298 299 299 298 295 293 291 289 287 287 286 285 282 281 280 279 278 278 277 276 276 276 275 274 273 272 271 271 270 268 268 267 267 267 266 265 264 264 263 262 262 262 261 261 260
295 299 299 296 297 299 296 294 298 303 302 297 295 293 292 295 297 292 284 283 285 286 285 286 289 290 290 290 292 294 293 289 289 291 294 296 297 294 293 296 302 305 303 300 297 296 295 292 290 289 288 287 285 283 281 280 280 279 278 277 276 275 275 275 273 272 272 271 270 270 269 268 267 267 266 266 265 264 263 263 262 262 261 261 261 260 260
297 298 295 292 294 298 297 296 300 302 301 301 302 297 293 295 295 289 284 283 286 289 292 292 291 291 293 295 297 296 291 288 288 291 294 294 293 292 296 302 305 305 303 299 295 294 294 291 289 288 289 287 284 282 280 280 279 278 277 277 275 274 274 273 272 271 271 270 270 269 268 267 266 266 265 264 264 263 262 262 262 261 261 261 260 260 259
302 299 294 290 291 294 295 295 297 298 297 298 296 292 291 293 291 285 282 285 290 293 294 292 291 294 298 297 294 291 290 290 292 295 296 295 293 295 300 306 306 302 299 296 294 294 292 288 285 285 286 285 283 282 281 280 279 278 277 277 276 274 273 272 271 270 270 270 269 268 267 266 266 265 264 263 262 262 261 261 261 261 260 260 260 259 259
Wind_Speed
13 13 12 11 9 6 3 4 5 4 3 3 3 3 3 3 3 5 15 7 7 12 7 3 5 4 0 1 1 1 2 1 1 1 2 1 1 2 2 0 1 0 1 1 1 1 1 2 1 1 2 3 3 3 2 1 1 1 1 1 1 1 0 2 5 5 5 5 4 3 2 3 2 2 2 3 3 3 4 5 2 1 4 3 3 8 7
12 11 9 7 5 3 2 2 2 2 3 3 3 2 2 2 3 5 15 8 4 6 4 2 3 1 0 2 2 2 2 2 1 1 2 1 1 2 1 0 1 0 1 1 1 2 1 1 1 1 2 2 1 1 1 1 1 1 1 0 2 2 1 2 5 7 6 5 4 5 3 2 1 4 2 1 3 1 1 2 1 1 6 6 4 9 9
9 7 5 3 2 2 1 2 2 2 4 3 3 3 3 3 1 3 14 17 11 4 4 6 5 2 2 4 2 2 3 1 2 2 0 0 2 1 1 1 1 1 0 0 2 1 0 2 2 2 2 2 1 2 3 2 1 1 1 1 1 1 1 0 2 4 7 7 6 6 4 3 3 3 3 3 4 3 1 1 1 4 6 4 4 10 13
6 4 3 2 1 0 2 1 1 1 3 3 4 4 2 3 3 2 8 13 10 3 1 5 6 4 4 3 3 3 2 2 1 2 0 1 1 1 1 1 1 1 2 3 3 2 1 2 2 2 3 3 2 3 4 3 2 1 1 2 2 1 1 2 5 6 6 8 9 6 5 6 9 10 10 6 4 5 2 0 4 6 5 6 9 11 15
4 3 1 1 0 2 3 3 2 1 2 3 4 6 4 3 2 1 1 4 5 4 5 5 4 3 4 3 1 2 1 2 1 1 0 0 1 1 0 1 2 2 3 3 3 3 3 2 1 2 4 4 4 2 4 2 2 4 2 1 2 3 3 4 6 8 9 9 11 10 8 9 11 12 12 8 4 4 4 5 10 6 4 11 13 10 14
3 2 1 1 2 4 4 4 2 1 2 2 2 4 5 3 2 1 1 2 2 2 3 3 5 5 4 3 1 1 2 1 1 1 1 1 1 1 1 3 2 1 1 1 2 4 5 3 2 2 2 3 5 4 1 1 2 4 2 1 3 3 3 5 4 6 9 9 11 12 10 8 8 10 13 11 4 7 8 12 13 6 5 14 15 15 16
3 3 1 1 5 5 2 1 2 2 3 3 5 5 3 3 3 1 2 3 3 2 1 3 6 6 4 3 2 2 2 1 1 1 2 3 2 1 1 3 3 1 2 2 1 3 3 4 4 2 2 3 3 3 2 1 2 3 1 2 1 2 3 4 3 7 10 10 12 12 8 7 9 12 14 12 6 8 11 12 10 6 9 13 14 17 18
5 4 4 4 5 6 4 4 4 5 4 3 6 5 1 2 3 1 4 4 1 0 2 3 5 4 4 3 1 1 3 1 2 0 2 1 3 2 1 4 6 4 3 3 3 5 4 4 6 2 1 4 2 1 2 1 1 1 0 2 1 0 3 3 2 5 9 8 9 9 7 8 13 15 13 11 9 6 7 7 6 5 9 12 14 17 17
7 7 7 7 8 7 6 5 4 3 3 3 5 4 3 4 5 6 6 4 3 2 2 3 5 3 3 2 1 1 1 2 1 0 1 2 1 1 1 4 5 3 1 3 5 6 5 6 8 5 3 4 3 2 2 0 2 3 1 1 2 0 3 4 5 4 8 6 4 9 11 11 11 10 9 9 8 4 3 4 4 4 9 14 14 14 13
9 9 10 9 8 8 5 4 4 4 3 5 5 3 4 6 4 5 7 3 2 2 3 3 4 2 1 1 2 0 2 2 0 1 0 0 1 3 3 1 2 3 3 4 6 5 5 7 7 4 4 4 3 3 2 2 1 2 1 0 0 1 1 3 3 4 8 7 6 9 10 9 7 5 4 5 5 4 4 4 5 6 8 10 11 11 11
12 11 11 11 10 9 7 6 6 6 5 5 7 7 6 5 4 3 6 5 2 2 2 3 3 2 1 1 1 1 0 1 2 1 0 1 1 2 3 3 1 2 3 4 3 3 5 6 4 2 2 3 2 2 1 1 1 3 3 1 1 2 2 2 1 1 7 11 10 8 7 6 5 2 1 2 2 4 6 7 7 9 9 9 11 11 11
15 14 14 13 12 11 11 10 9 8 8 8 10 11 7 5 5 4 6 5 1 4 3 1 0 2 1 1 2 2 2 1 1 1 2 2 2 2 3 3 0 2 3 3 4 4 4 4 3 2 2 3 2 1 1 2 3 2 3 3 1 1 1 2 1 2 5 6 7 8 8 5 4 1 0 2 3 3 8 11 10 11 11 10 10 11 10
17 16 15 14 14 13 12 12 10 9 9 7 8 11 10 6 6 5 5 6 1 2 3 2 1 0 1 2 3 2 3 2 1 0 1 1 1 2 2 1 2 3 5 4 4 4 3 4 2 1 2 2 3 4 3 5 4 2 1 3 2 1 0 1 1 2 4 4 5 6 10 6 1 2 3 3 2 2 7 13 12 9 7 6 8 11 11
17 17 16 15 14 13 12 12 10 9 8 5 5 9 9 4 4 4 5 6 2 1 3 4 1 1 1 2 3 1 2 3 3 1 0 1 1 2 2 1 1 6 6 3 3 3 2 2 3 3 3 3 4 4 3 3 4 3 2 2 2 3 1 2 2 1 2 4 5 6 10 8 2 2 3 2 2 4 7 12 11 4 3 3 7 12 13
17 17 17 16 16 15 14 13 12 10 9 6 4 8 8 4 4 5 5 7 5 1 2 2 2 3 2 1 2 3 3 4 3 2 2 1 1 2 3 2 4 7 4 2 2 3 2 2 4 5 5 4 4 3 2 1 2 2 1 1 2 3 2 1 1 1 1 4 6 6 9 9 2 3 3 1 3 5 6 10 8 1 2 7 10 11 13
17 17 17 17 17 17 16 15 14 13 10 6 4 9 10 8 7 8 8 7 6 3 2 1 2 2 3 0 1 3 2 2 2 3 4 4 2 2 3 2 4 4 3 3 2 2 3 2 2 2 3 2 3 5 3 2 3 2 1 2 2 2 0 4 2 3 2 3 5 5 7 7 3 3 5 4 5 5 5 7 5 1 5 12 12 10 12
19 18 18 18 18 16 16 15 13 12 10 7 5 9 12 9 7 8 9 7 5 3 1 3 1 1 2 1 1 2 2 1 2 2 2 3 2 3 3 3 3 2 3 3 2 3 3 2 1 1 3 3 1 4 4 3 5 4 3 2 3 4 3 3 0 4 4 4 5 4 4 5 4 4 6 5 4 3 6 9 8 7 12 14 12 12 12
20 19 19 19 19 18 16 14 12 11 9 7 7 10 13 10 6 6 7 6 5 2 3 4 2 2 2 2 1 0 1 1 2 1 1 2 1 1 2 1 2 1 1 2 3 3 2 2 1 1 2 4 2 2 3 3 5 5 4 4 3 3 2 0 2 4 5 5 5 4 4 5 4 5 5 6 7 6 8 10 10 12 15 14 13 14 14
20 20 20 20 20 20 19 17 14 11 9 7 5 9 13 10 6 8 9 7 5 2 2 5 3 2 1 1 1 1 1 2 2 2 2 3 1 1 1 0 1 1 1 3 2 1 2 2 2 2 1 4 2 1 2 3 3 3 4 5 4 3 2 2 2 3 3 3 4 6 6 2 2 6 4 4 8 9 8 9 11 13 15 14 13 14 14
21 22 21 21 21 21 20 19 17 13 12 9 6 13 19 14 6 4 6 7 6 4 2 5 4 4 4 3 3 2 2 3 2 2 2 2 3 1 4 3 2 1 3 3 2 1 1 2 3 1 1 3 2 0 2 4 2 2 2 2 2 2 2 4 4 2 2 3 3 5 6 3 8 11 7 5 8 9 8 9 11 12 14 14 12 12 13
22 22 22 22 22 22 21 21 18 15 14 9 6 14 23 23 19 13 13 18 14 4 0 2 4 7 7 6 4 3 3 3 2 1 2 3 3 2 3 2 2 1 1 1 1 1 0 1 2 1 0 2 2 2 3 5 4 3 1 1 1 2 2 3 3 1 3 5 3 5 8 7 9 11 9 9 10 9 7 9 10 10 12 12 11 12 13
22 23 22 22 22 22 21 22 19 18 16 11 9 15 19 20 21 16 15 24 23 11 7 9 10 13 13 10 7 5 4 5 3 2 1 2 3 2 3 1 2 0 1 2 1 1 1 1 0 1 1 2 2 3 3 2 3 5 3 1 0 2 2 2 2 2 2 3 7 9 9 7 8 9 11 12 12 10 9 11 11 11 10 10 10 12 14
22 22 22 22 22 21 21 21 20 20 19 14 14 19 22 20 18 15 17 26 25 14 10 11 10 10 11 10 9 8 5 3 2 2 2 1 2 2 2 2 1 1 0 2 2 2 1 1 1 1 1 1 1 3 3 1 1 3 4 1 1 2 1 1 1 4 4 5 8 9 9 10 13 14 12 10 10 10 11 12 12 11 11 10 11 13 14
21 21 21 21 21 21 21 21 20 20 20 17 16 21 25 23 19 17 18 18 12 6 5 6 4 4 3 5 7 7 6 5 2 1 3 3 2 2 1 1 1 1 1 1 1 2 2 1 1 2 0 1 0 2 2 2 2 2 4 4 3 2 2 1 1 4 6 6 7 8 10 13 15 14 11 11 12 12 12 12 12 12 13 12 12 14 15
19 19 19 20 20 20 21 21 20 19 18 17 16 18 20 16 12 11 12 9 5 5 5 3 2 2 2 3 4 5 6 6 4 2 3 3 2 2 1 1 1 1 1 3 1 3 2 0 1 2 0 2 1 1 1 2 2 1 2 3 3 2 2 2 3 4 7 10 12 13 14 14 13 11 11 12 13 14 14 13 13 14 16 17 17 17 15
18 16 15 15 16 18 20 21 22 22 19 17 16 17 18 16 12 10 13 13 9 6 5 2 2 2 0 1 3 4 5 6 5 5 5 4 3 3 2 1 1 0 2 2 2 4 2 1 2 2 1 1 1 0 1 2 1 1 2 2 3 3 3 3 4 6 8 10 13 15 17 16 14 13 14 14 13 14 14 14 14 16 17 18 20 21 19
19 17 14 11 9 10 12 15 17 20 20 19 20 20 19 17 13 9 8 8 4 3 3 2 2 2 1 2 4 6 6 5 6 7 7 5 5 4 4 3 2 1 1 2 1 2 2 2 2 1 1 1 1 1 1 2 0 1 2 3 3 4 4 4 5 6 7 9 11 13 13 13 13 15 17 16 14 13 14 15 16 17 17 18 19 22 24
20 19 17 14 10 7 5 5 8 10 13 15 18 22 24 23 19 14 8 4 4 5 4 3 3 2 3 2 4 7 6 4 5 7 7 6 7 6 4 3 1 1 2 2 1 2 3 1 0 1 1 0 1 1 2 2 2 1 2 3 2 3 3 4 5 5 7 10 12 11 9 10 13 16 16 15 15 14 14 16 17 16 19 21 20 20 21
18 19 19 18 17 13 8 4 2 2 4 6 8 14 20 21 20 18 15 12 15 15 7 3 4 3 1 0 2 5 5 4 4 4 3 4 5 4 2 2 1 0 2 2 2 2 2 2 1 1 1 1 1 1 1 2 2 2 4 4 3 3 3 4 5 7 8 10 11 11 11 12 14 15 13 14 17 15 13 15 16 18 23 26 23 21 20
17 17 18 18 19 19 17 12 7 3 1 1 1 5 9 11 13 15 14 12 13 13 7 3 3 1 1 1 1 3 3 2 1 2 1 1 2 3 3 3 2 1 2 2 2 2 1 1 1 1 1 1 2 1 0 1 1 3 4 5 5 5 5 4 4 6 7 8 8 10 11 12 13 14 13 16 20 19 14 15 19 23 26 27 24 22 24
13 14 15 16 17 18 18 18 15 9 3 1 1 2 3 3 6 10 9 7 7 9 7 4 3 1 1 1 1 2 3 1 1 1 0 1 2 2 2 1 1 1 2 1 1 1 1 1 1 0 1 1 3 2 2 1 1 4 5 5 5 5 5 5 5 5 7 9 9 10 11 10 11 13 13 16 21 21 17 19 25 26 27 27 26 24 26
12 12 11 12 13 14 15 16 15 13 13 14 13 9 5 2 3 7 7 6 6 7 6 4 2 0 1 1 1 2 3 0 2 1 0 1 1 1 1 0 0 0 1 1 1 1 1 1 2 1 0 1 3 2 2 2 1 5 6 5 5 5 5 5 6 6 8 10 11 11 13 12 11 11 13 16 21 22 21 23 27 27 27 28 27 26 28
10 10 9 9 10 11 12 13 12 14 19 24 23 18 14 8 4 4 5 6 7 6 4 4 3 1 1 1 1 4 5 1 1 1 1 0 0 1 1 1 1 1 1 1 1 0 0 1 2 1 1 1 3 3 2 1 3 6 7 6 5 5 5 6 7 6 7 9 9 9 11 13 14 15 18 19 21 22 22 24 25 26 26 24 21 23 27
8 7 7 8 8 9 9 9 10 13 17 18 18 19 21 18 12 7 4 4 7 7 5 4 3 0 2 1 1 4 6 3 1 2 1 1 1 1 0 1 2 2 1 1 1 1 1 1 2 1 2 1 3 3 1 3 6 7 7 7 6 5 5 5 6 5 7 10 11 10 12 15 16 17 17 17 18 21 23 23 22 22 20 16 16 21 25
8 6 5 5 6 8 8 8 8 10 11 11 10 12 17 19 20 18 12 6 4 4 3 4 4 2 3 4 2 4 6 4 1 0 0 1 1 1 1 1 2 1 1 1 1 2 1 0 1 0 1 1 2 1 2 5 7 7 6 7 6 5 5 6 7 8 9 11 12 12 13 15 13 12 12 14 18 22 23 22 22 21 16 13 16 22 25
7 6 4 4 5 5 7 8 8 7 6 6 6 7 9 11 14 19 19 16 13 6 2 2 4 2 2 1 3 5 7 4 1 1 1 0 1 1 2 3 2 1 0 2 2 1 1 1 1 1 1 1 0 3 4 5 7 7 7 7 6 4 5 7 9 10 11 12 11 10 12 13 11 11 12 13 17 22 22 19 19 18 15 14 16 20 23
7 5 4 3 4 4 5 7 7 6 4 3 4 5 6 4 5 9 12 15 15 11 6 4 2 1 1 1 2 5 7 3 1 3 3 0 1 1 1 3 1 1 2 4 1 1 1 1 2 1 1 1 2 4 5 4 5 6 6 6 5 4 4 7 10 11 12 14 14 13 13 14 13 13 14 14 16 20 19 16 15 15 15 15 16 18 22
6 5 4 3 3 3 2 4 4 3 2 2 2 3 5 4 4 5 5 6 7 8 7 5 1 1 1 0 2 4 4 1 2 3 2 1 1 2 1 1 1 1 2 2 2 2 1 2 2 1 2 3 2 3 5 5 4 5 5 4 4 6 7 9 11 11 11 13 14 14 15 15 15 15 15 15 16 17 17 17 18 19 19 19 19 21 24
5 4 4 4 3 1 0 3 3 1 2 2 2 2 4 5 4 3 3 3 3 3 4 3 1 0 2 1 3 3 3 2 2 3 2 1 2 2 1 0 0 1 2 1 1 1 2 2 1 1 2 4 3 4 5 4 4 5 5 5 7 10 12 11 11 11 9 9 11 12 12 13 14 14 13 13 14 16 18 20 21 21 21 22 23 23 23
5 4 3 3 2 1 1 4 3 2 2 3 3 2 2 3 3 1 1 3 3 2 1 2 0 1 1 1 2 2 3 3 1 0 1 1 1 0 1 0 0 1 1 1 1 1 1 1 1 0 2 3 3 4 5 4 4 6 7 7 10 13 14 12 13 14 12 12 13 14 14 15 15 14 13 13 13 13 16 19 20 21 22 23 23 24 23
4 3 2 2 2 1 2 4 4 2 2 2 3 3 2 2 1 1 2 3 2 2 1 2 2 3 1 1 2 2 2 3 1 2 1 1 1 1 1 1 1 2 0 3 2 2 3 1 1 2 4 3 2 4 5 4 4 6 7 9 11 14 14 13 14 15 14 13 14 14 16 17 17 16 16 17 15 15 16 19 21 22 23 23 24 24 24
3 3 3 4 3 2 2 3 5 4 2 2 2 2 1 1 1 2 2 1 0 1 1 1 0 2 2 1 2 2 1 2 2 2 1 1 1 1 1 1 1 2 1 3 0 3 2 1 2 4 4 3 2 4 4 4 4 6 7 9 12 13 13 12 13 13 13 13 14 14 15 17 17 17 17 18 18 18 19 20 22 23 23 24 24 24 24
4 4 4 3 3 3 3 3 3 3 2 2 2 2 2 2 2 1 1 1 0 0 1 2 1 1 1 0 1 1 0 1 1 1 1 1 1 1 2 2 1 0 1 0 2 2 0 2 3 4 4 3 3 3 4 4 5 6 7 9 11 12 12 11 11 11 12 13 13 14 15 16 17 18 18 19 21 21 21 22 22 22 23 24 24 23 25
3 4 3 2 2 3 3 2 2 2 2 2 1 1 1 3 2 0 1 2 1 1 1 1 1 2 2 1 1 1 1 0 1 1 0 1 1 2 1 0 1 1 0 1 1 1 2 3 4 4 3 2 3 3 3 4 5 5 5 7 11 12 11 11 11 10 11 12 14 15 16 17 18 19 19 21 21 21 21 23 23 23 24 25 24 23 26
2 2 3 3 3 3 2 1 2 2 2 1 1 3 2 1 3 3 2 1 1 1 2 1 2 1 2 2 0 1 1 1 1 0 0 1 2 1 1 2 1 1 2 1 1 2 2 3 4 3 3 3 4 3 4 5 5 4 4 6 9 10 10 10 10 10 9 11 14 15 15 16 18 19 20 21 21 19 19 22 23 24 26 26 25 25 27
3 2 3 3 2 2 1 2 2 1 1 1 2 3 3 3 4 3 2 1 1 1 2 1 2 2 1 3 1 0 0 1 1 0 0 2 1 1 2 1 1 2 2 1 2 3 4 4 4 3 3 4 4 3 4 5 5 5 5 4 6 8 9 10 9 9 9 10 12 13 14 15 17 17 18 19 20 19 20 21 21 22 24 25 24 25 27
3 2 2 3 1 2 1 1 0 0 1 1 2 3 3 3 3 2 2 2 2 2 2 1 1 1 2 1 1 0 1 1 1 1 0 1 0 2 1 2 0 1 1 1 4 5 4 4 3 3 4 4 3 3 4 4 3 5 5 4 5 7 8 8 7 7 9 11 12 12 13 15 16 17 18 18 19 19 20 21 21 23 25 24 23 24 27
2 1 2 2 1 1 1 1 0 0 0 1 2 3 2 1 1 3 3 3 1 1 1 0 1 0 1 0 1 0 1 1 1 1 0 1 1 1 2 2 2 2 2 4 5 4 4 4 4 4 4 4 3 3 4 2 2 3 4 5 5 6 6 6 6 7 9 11 11 12 14 15 15 16 17 17 17 19 20 20 21 24 27 25 24 26 28
5 3 3 2 2 1 1 1 1 2 3 1 1 1 2 2 3 4 3 2 0 1 2 2 1 0 1 1 1 1 1 1 0 0 1 1 0 0 0 1 3 4 3 4 4 3 3 4 4 5 4 4 4 4 3 1 2 3 3 3 4 4 4 4 4 6 9 10 11 12 14 14 15 16 16 16 17 19 20 19 20 25 26 24 23 25 28
6 4 2 2 2 1 1 1 2 2 5 4 2 0 2 2 3 4 3 3 1 1 1 1 0 0 0 1 2 1 1 1 1 1 1 1 1 1 1 2 4 4 4 4 4 4 4 4 4 5 5 5 4 4 3 1 2 3 2 3 3 3 3 3 4 6 8 9 11 12 14 15 15 16 16 15 15 17 17 17 20 24 24 22 22 24 27
4 4 1 0 1 2 2 1 2 2 4 4 3 3 3 2 2 3 4 4 2 2 2 0 0 1 2 2 1 0 1 0 1 1 1 3 2 3 2 4 6 5 4 4 4 4 4 4 4 5 5 5 4 4 3 1 1 1 1 2 2 3 3 3 4 6 7 8 10 12 13 14 14 13 13 13 15 17 17 17 21 24 23 22 22 24 26
2 2 1 1 0 3 3 1 1 3 4 4 4 3 3 2 2 4 5 5 3 2 1 1 2 3 1 1 1 0 0 1 1 1 3 3 3 4 5 6 5 4 4 4 4 4 4 5 6 7 6 6 5 4 2 2 1 1 2 2 2 2 3 4 5 6 7 8 10 11 12 12 12 13 14 16 18 19 18 18 21 23 22 21 21 23 24
Wind_Direction
133 138 143 153 159 171 215 306 316 322 359 11 15 42 58 78 143 346 356 8 112 79 56 349 31 65 197 356 36 27 82 104 349 348 13 23 7 23 42 43 23 106 219 349 1 332 284 257 258 275 274 253 224 199 179 169 118 98 332 315 315 306 31 296 281 269 274 288 314 342 13 57 48 273 234 168 174 179 197 227 260 303 256 241 259 275 269
135 141 148 161 177 211 260 349 42 53 37 12 20 84 110 116 173 10 17 31 117 82 88 125 61 69 187 44 19 357 50 87 72 27 353 357 88 56 19 274 14 298 169 129 238 269 330 294 284 288 265 262 237 230 225 161 152 210 218 288 327 300 288 333 323 322 321 328 338 324 328 48 265 261 271 204 200 179 261 234 66 298 240 207 224 273 271
138 148 160 178 196 206 166 97 86 50 22 17 54 116 130 71 78 343 20 41 67 94 145 138 124 152 110 68 43 24 30 39 159 153 298 275 145 128 329 350 48 280 5 51 266 274 147 269 319 6 276 268 299 269 245 199 187 252 288 39 11 263 235 331 319 312 311 307 307 305 306 312 283 277 303 274 209 180 249 288 257 262 254 218 218 266 282
145 158 170 187 196 214 204 204 208 30 24 42 74 86 110 80 56 331 359 29 53 70 91 102 112 145 125 71 33 64 48 300 238 135 78 280 141 111 328 14 46 10 23 9 308 296 241 258 319 339 280 276 280 222 201 207 207 149 55 39 71 107 265 230 211 223 253 269 274 287 315 309 299 297 292 274 214 197 188 138 251 262 293 282 255 267 294
152 163 161 201 95 85 108 97 104 126 41 55 78 58 56 96 82 64 353 7 37 35 20 52 86 132 128 100 28 86 78 311 322 59 147 195 92 59 13 54 39 357 16 15 305 294 320 297 279 285 255 265 300 244 169 210 215 134 103 286 111 75 306 260 233 236 247 262 276 291 308 297 289 291 289 278 221 189 180 224 254 277 323 285 280 305 317
157 159 162 218 171 138 113 73 55 105 32 35 85 44 28 78 130 158 128 82 73 44 20 60 74 64 86 107 120 114 79 19 347 306 332 22 40 58 23 14 21 189 158 69 288 307 338 318 257 283 268 283 331 335 194 216 160 120 76 289 126 104 265 250 246 264 267 274 283 290 296 285 273 278 287 288 246 192 208 238 253 266 270 274 297 326 318
152 140 114 172 179 178 162 39 34 106 84 48 80 76 40 83 105 30 53 99 153 171 37 80 79 64 75 88 82 110 110 80 253 251 21 4 338 64 55 309 313 258 178 130 218 280 331 312 281 283 283 287 331 328 298 318 116 111 35 306 143 133 255 262 271 279 279 278 278 285 291 288 288 288 291 297 274 219 225 245 260 265 258 273 306 317 308
145 128 101 103 141 159 140 102 98 103 90 56 69 76 83 135 146 142 68 67 113 164 26 73 79 53 58 79 61 101 122 164 251 252 87 23 316 18 48 277 289 275 201 156 221 237 209 248 262 236 295 300 281 235 275 317 353 27 78 306 337 137 278 320 6 305 291 276 269 285 293 290 295 294 293 301 297 259 238 258 284 296 285 296 314 309 304
125 116 108 102 112 130 131 116 106 89 81 82 74 68 82 106 132 138 110 62 3 15 17 71 91 41 16 87 155 23 115 185 210 252 164 167 208 210 223 281 304 315 216 208 249 245 207 228 249 228 216 253 237 231 248 81 339 325 300 324 359 27 288 343 34 337 295 279 288 307 308 301 296 296 302 306 301 285 241 250 265 287 299 308 313 308 309
110 107 106 103 105 112 113 105 97 87 92 95 89 102 116 101 98 112 105 77 4 31 13 31 80 73 329 151 166 203 227 224 111 54 294 109 157 186 181 238 334 348 328 284 260 244 224 236 251 235 217 239 250 254 227 128 136 263 206 242 304 118 328 330 12 321 291 299 320 309 309 317 308 296 302 297 295 302 285 272 286 298 305 311 309 308 319
99 98 96 96 96 96 93 90 88 86 88 96 115 143 156 133 121 87 80 76 5 11 48 37 61 107 198 127 111 117 149 323 25 86 242 313 307 173 131 95 7 292 276 279 277 254 237 239 250 249 256 280 274 230 172 105 198 190 155 179 274 106 102 273 272 278 288 306 326 324 322 325 299 266 179 234 280 308 298 291 296 299 300 302 304 314 328
89 87 86 85 84 82 81 81 79 81 91 106 126 140 151 141 121 86 87 104 350 357 61 75 205 154 168 78 89 133 169 208 250 169 186 258 302 24 69 92 129 286 292 314 341 333 282 264 262 267 306 321 316 311 252 239 259 232 151 149 169 58 55 269 240 211 269 310 352 343 321 297 256 238 11 282 257 268 294 296 292 297 307 315 320 323 323
83 82 81 80 79 80 79 80 79 84 93 106 124 132 139 134 105 87 98 110 62 357 88 98 304 7 101 88 97 147 209 223 286 313 145 220 268 347 15 106 176 288 310 318 353 10 324 293 300 287 299 338 347 322 275 223 230 269 110 134 132 102 314 288 263 253 289 342 6 322 301 296 300 316 312 308 302 316 315 308 304 313 329 343 333 315 307
81 79 78 77 78 80 78 80 81 81 89 104 131 135 141 141 109 115 117 104 100 251 115 93 11 11 94 108 106 83 323 334 340 327 329 107 160 234 275 235 284 313 318 318 358 20 3 328 0 346 321 5 15 328 294 239 214 205 223 239 147 135 150 337 322 259 294 321 304 287 297 312 340 305 299 336 327 315 313 307 312 347 38 351 319 306 306
79 77 76 74 74 74 74 75 74 73 76 83 123 132 127 114 111 127 124 111 119 121 56 91 198 177 131 125 102 74 9 343 345 333 316 16 105 242 256 279 326 329 346 57 41 17 38 30 11 353 340 0 353 313 319 335 257 209 218 310 77 121 160 131 332 284 347 323 302 302 314 317 305 253 272 261 268 280 291 299 308 50 49 335 328 314 314
77 76 74 72 69 68 69 68 67 69 68 70 109 115 99 87 94 101 98 101 113 107 40 306 229 165 129 200 64 85 66 335 348 3 344 343 340 292 272 297 331 340 29 65 57 48 52 45 28 348 316 305 305 298 307 345 321 329 21 10 8 346 109 113 111 289 316 320 299 298 305 306 292 259 261 248 254 271 289 298 303 33 348 339 338 323 319
74 73 71 70 67 64 64 63 63 66 65 66 94 97 86 82 92 98 92 83 86 104 307 305 281 135 99 78 30 60 84 23 35 42 339 307 298 305 313 331 347 19 67 49 27 55 52 24 35 3 284 262 296 303 301 329 326 324 342 340 335 337 357 56 354 280 289 294 286 272 259 270 281 277 279 287 283 300 323 313 317 347 345 342 340 327 322
70 70 70 69 68 65 63 61 58 62 66 67 79 80 74 70 69 84 97 94 92 108 310 334 42 118 109 120 141 43 78 41 31 47 302 298 287 279 294 326 11 3 58 53 34 51 52 340 358 70 266 277 334 328 307 325 317 313 332 342 343 345 342 326 252 276 292 291 286 286 270 269 286 280 283 308 312 324 333 318 319 338 338 337 337 329 324
68 69 68 68 68 66 64 61 56 56 61 58 64 67 59 54 67 86 89 84 82 107 309 342 35 77 347 273 183 339 25 65 70 87 28 338 304 171 174 153 77 355 13 45 37 72 73 323 300 117 185 294 316 14 319 313 291 305 338 345 346 343 332 322 301 288 283 261 278 304 294 263 341 318 304 347 339 329 324 318 322 331 330 329 332 328 323
67 67 66 65 66 64 62 61 55 54 57 52 64 71 59 48 47 77 100 110 102 90 39 10 32 57 30 37 84 51 18 44 60 109 121 258 263 69 45 346 315 351 22 28 4 2 72 325 302 73 126 279 283 157 305 309 311 334 347 336 323 319 319 316 302 283 305 298 300 316 307 343 21 358 352 19 354 327 316 319 324 327 325 326 328 324 322
66 67 65 64 65 63 62 61 55 53 57 52 72 82 68 59 61 72 109 122 114 105 68 44 61 74 65 64 88 91 89 104 115 146 160 251 275 67 82 262 281 1 38 65 2 305 334 277 285 332 266 285 336 350 315 320 323 310 251 177 243 298 308 308 293 295 356 332 304 296 303 327 16 9 347 340 337 330 328 327 325 327 327 326 323 322 323
66 66 65 64 64 62 61 62 57 56 60 58 71 85 81 74 73 79 102 100 89 87 117 106 84 77 71 66 74 84 101 120 129 135 138 296 320 56 98 113 75 33 225 115 91 303 325 352 336 350 311 316 350 325 310 321 310 307 324 55 285 271 233 221 257 244 227 261 269 282 300 329 0 352 334 332 336 340 338 328 323 325 328 325 322 321 323
66 65 63 62 63 61 60 61 59 58 61 59 63 80 91 94 90 95 103 94 86 89 105 98 85 75 60 48 54 61 66 82 115 146 119 47 359 37 67 77 78 268 298 86 126 173 172 222 192 129 310 283 350 339 334 343 265 303 329 336 252 273 272 126 281 282 270 252 267 289 318 339 339 333 331 335 341 342 336 329 326 325 324 324 322 321 321
63 62 60 58 60 60 59 60 59 59 62 60 61 79 94 98 96 99 100 95 93 96 80 65 67 65 24 14 35 36 26 31 58 134 101 70 52 59 55 2 19 33 8 299 217 143 120 213 165 85 28 256 16 22 341 307 288 305 328 323 308 319 348 357 284 302 314 305 297 316 332 331 327 326 329 337 342 340 336 331 326 323 322 322 321 320 320
57 57 57 56 57 59 59 61 61 59 61 63 67 80 89 90 89 96 96 96 117 121 90 46 8 9 338 337 11 9 7 23 46 86 85 70 77 92 131 265 86 115 240 276 350 80 83 7 77 84 214 275 346 11 273 281 289 317 347 328 304 289 306 302 290 297 301 301 312 329 329 322 324 331 334 340 341 337 334 331 325 322 322 323 324 325 323
52 51 53 55 58 60 62 64 65 65 65 66 70 76 80 78 77 87 95 99 101 97 93 87 305 311 326 5 3 6 14 27 48 74 77 70 76 97 119 99 62 226 260 309 63 102 117 95 85 99 185 304 13 36 250 264 281 345 335 272 258 287 312 308 309 308 297 301 323 336 330 324 333 340 337 338 338 332 330 329 327 327 326 326 328 329 327
52 48 46 46 50 55 60 62 64 65 65 65 67 71 74 72 69 75 98 108 97 67 94 130 260 278 139 91 33 24 23 24 46 61 62 66 78 89 95 83 43 346 15 36 55 91 83 62 76 139 211 267 74 121 239 255 167 32 310 277 287 324 328 324 327 324 314 316 332 340 331 322 328 334 333 335 335 332 330 331 331 332 333 332 331 331 331
53 50 47 44 41 39 45 50 53 58 61 62 63 66 65 62 58 58 63 89 120 117 122 147 158 144 132 93 22 20 23 30 53 58 50 51 68 83 86 74 28 28 71 79 76 73 74 77 115 195 208 33 31 350 298 334 44 34 287 280 304 324 321 330 330 313 306 316 327 332 324 311 316 325 329 332 334 334 333 334 336 337 337 337 335 333 333
50 48 48 47 47 48 49 45 43 54 61 59 61 66 64 58 55 60 65 84 104 107 101 100 113 113 128 227 352 1 10 23 49 64 48 31 41 51 29 351 315 168 99 100 98 92 111 155 156 184 202 149 135 294 329 15 14 301 261 264 276 272 273 298 306 300 305 317 322 324 319 312 315 321 324 327 334 337 336 337 340 340 339 339 337 334 335
46 46 45 45 47 48 46 43 38 22 1 2 50 68 62 49 46 57 69 83 99 105 107 107 108 110 272 223 276 328 348 13 58 105 118 324 325 323 326 317 297 328 67 68 93 116 141 131 77 343 284 135 123 129 86 61 289 269 259 264 283 289 288 294 296 293 301 310 313 314 310 306 310 319 324 331 339 342 341 340 341 341 339 339 338 336 337
43 43 44 45 46 46 45 42 39 34 32 70 83 70 74 34 23 44 62 75 90 100 102 92 92 80 317 273 261 318 343 323 187 144 201 263 280 296 307 304 302 10 77 79 93 123 139 121 77 68 288 53 99 128 144 126 296 286 278 276 287 293 296 302 302 292 298 309 314 312 309 311 320 327 330 336 342 343 341 340 341 341 339 339 339 338 338
42 43 46 48 48 48 49 48 45 49 64 75 77 79 95 110 20 40 62 80 95 103 100 85 82 41 322 291 274 355 11 227 180 146 152 235 286 299 272 193 246 242 129 117 73 55 141 167 139 145 259 81 89 98 104 106 265 287 296 301 295 293 300 311 314 308 310 319 324 323 322 327 333 333 330 333 339 339 338 340 343 344 342 339 339 339 339
41 43 47 53 52 51 54 56 56 63 73 76 74 72 69 65 51 52 71 78 76 79 88 95 95 64 311 216 273 5 13 14 179 55 42 203 147 349 295 318 346 352 18 53 136 164 326 119 105 19 302 73 88 84 93 156 252 284 305 303 288 288 301 307 310 311 315 323 327 324 320 322 327 329 329 331 336 339 340 344 348 347 343 340 339 340 340
36 42 50 58 58 55 58 60 64 74 78 75 69 64 60 59 57 59 80 99 80 63 55 75 97 355 336 15 25 10 19 19 332 24 38 279 334 64 57 322 3 45 13 358 105 77 10 41 76 341 283 334 61 80 110 275 281 292 305 297 287 293 299 301 310 316 319 326 327 319 317 320 325 328 330 332 339 344 346 350 353 349 343 340 342 341 340
30 41 55 65 64 62 62 62 66 74 74 69 66 65 62 60 58 57 61 73 75 58 29 46 77 78 9 4 317 327 7 18 260 232 57 288 346 83 119 36 27 40 297 310 84 63 15 115 112 288 274 347 37 92 245 289 300 306 308 303 307 325 327 325 330 327 324 329 329 324 327 330 328 330 335 340 346 350 350 352 354 351 344 341 341 340 340
26 33 52 82 91 79 64 55 55 58 61 68 77 72 66 63 61 60 62 62 64 78 122 65 62 81 50 348 283 320 359 10 285 306 1 17 358 23 85 82 67 254 314 51 58 26 328 161 131 355 329 27 137 224 241 281 301 305 307 306 314 339 342 328 328 328 327 329 330 330 336 341 341 343 345 346 349 351 350 351 353 351 345 340 339 340 342
27 34 55 99 106 84 53 43 42 44 52 86 101 73 56 61 64 56 54 53 51 55 76 87 81 127 149 205 269 334 354 346 317 357 0 302 315 338 67 84 92 259 14 31 22 242 291 51 95 91 267 227 216 238 254 274 285 290 300 308 319 344 347 334 335 337 334 336 342 347 347 348 350 349 347 348 350 351 350 350 350 348 344 341 340 340 340
29 43 71 91 86 71 39 12 10 28 56 101 121 67 30 30 47 39 28 32 34 35 54 79 97 295 44 115 285 338 358 327 337 9 356 236 309 347 39 79 113 156 27 345 249 200 35 17 64 109 252 263 273 284 284 285 283 287 299 320 344 356 355 349 349 350 344 342 346 347 346 349 350 347 345 348 350 349 348 347 346 347 346 343 341 340 341
36 58 73 68 73 117 23 357 5 77 105 80 84 64 18 18 39 30 348 3 22 11 30 60 92 242 70 45 308 341 34 47 4 2 348 294 328 347 357 17 23 67 43 329 262 88 34 336 8 66 277 290 335 334 312 314 322 315 325 0 15 8 3 359 359 359 353 342 338 339 347 354 350 341 343 350 349 346 346 346 346 347 347 345 344 344 345
47 66 74 64 79 130 30 10 23 125 121 44 40 61 32 22 45 60 347 30 34 349 358 66 120 243 106 98 279 312 30 49 35 285 288 286 283 83 75 20 313 66 57 280 274 63 79 258 311 23 251 268 314 321 315 327 334 327 341 13 22 14 9 8 6 2 356 348 344 347 355 358 351 345 350 353 348 343 343 345 346 347 346 346 348 350 349
46 61 84 101 103 107 53 32 41 83 102 39 33 48 40 16 20 44 48 45 23 303 283 73 27 319 336 109 193 249 335 16 68 134 121 310 309 83 75 281 288 74 111 249 261 73 88 93 302 260 235 238 278 299 309 328 330 327 347 15 23 17 14 12 8 4 3 1 356 352 352 354 355 356 356 353 348 343 342 343 344 347 349 351 351 351 350
59 79 104 109 95 80 63 41 35 38 52 52 39 33 18 5 17 24 34 54 33 284 287 71 51 273 267 196 184 212 287 4 34 89 86 312 292 109 113 290 8 61 222 241 287 63 64 356 280 258 244 240 265 288 311 332 325 323 350 17 24 19 15 10 5 5 9 9 359 349 349 354 358 358 355 351 349 348 348 348 348 349 351 352 351 350 352
74 92 107 107 73 41 28 19 20 29 43 46 39 21 349 354 22 28 331 311 329 329 289 285 298 309 315 77 169 208 259 354 25 95 119 267 310 60 57 27 28 136 223 252 61 66 159 231 238 243 244 248 269 289 316 330 319 320 350 19 23 16 11 10 7 5 8 8 360 352 352 354 354 353 354 355 353 352 353 355 355 353 352 352 352 353 355
91 86 83 84 37 19 15 353 1 38 52 38 49 83 16 340 326 259 295 312 308 273 266 279 1 349 312 280 100 49 314 329 78 84 12 307 18 56 60 275 248 240 340 37 47 226 235 234 232 233 238 262 288 302 316 319 314 319 349 13 15 11 8 10 10 5 3 3 1 357 355 353 350 352 356 358 356 354 354 357 358 356 354 353 354 355 357
94 50 44 41 6 358 25 11 357 35 60 30 194 165 165 241 250 231 236 254 239 275 300 358 75 70 269 266 74 72 297 314 47 50 298 10 32 35 219 228 260 28 49 32 308 279 265 257 249 242 255 280 292 302 306 306 315 342 7 7 6 6 6 7 8 6 4 2 359 356 354 351 351 352 354 355 357 358 359 0 360 357 355 354 355 356 356
91 69 78 79 19 336 66 67 15 19 141 214 209 178 179 203 215 214 219 214 200 246 269 276 91 89 286 291 326 74 334 28 47 260 137 73 54 266 233 174 51 37 39 353 292 262 243 243 239 224 231 256 269 283 294 304 337 18 27 4 352 0 7 8 7 7 5 359 355 353 353 353 353 353 351 352 357 1 2 2 2 0 358 356 356 355 354
82 46 77 92 45 359 41 80 28 258 206 200 194 188 193 214 235 245 230 211 214 247 267 273 87 161 240 275 8 326 318 45 59 277 323 91 136 285 355 56 54 240 185 247 257 248 239 242 237 216 218 235 255 287 297 305 351 24 18 351 348 2 10 9 9 8 1 353 351 354 356 356 356 354 352 353 357 360 360 360 1 2 1 360 358 357 356
98 45 67 99 112 352 14 99 153 298 331 173 186 196 188 179 266 273 241 212 217 314 328 33 33 338 261 329 64 266 290 15 54 267 300 102 136 325 8 15 299 262 202 201 223 232 231 228 221 213 213 219 230 258 276 288 354 10 358 353 1 10 14 12 9 2 353 350 353 358 360 360 358 356 354 354 355 355 357 360 1 2 3 3 1 360 359
77 76 74 99 128 173 218 139 82 324 303 292 170 179 173 182 252 260 226 176 177 268 205 174 130 137 265 311 56 75 334 343 123 314 3 38 78 173 76 306 289 282 249 218 215 223 230 221 203 197 209 221 230 242 247 261 352 356 356 6 12 17 25 26 10 353 350 354 0 3 2 3 2 359 358 359 356 353 356 1 2 2 4 4 2 0 360
56 66 64 65 80 100 234 146 82 320 303 314 333 239 181 199 256 253 193 156 143 2 59 97 103 177 239 7 40 33 301 259 152 98 12 267 198 164 166 229 242 240 232 226 219 217 220 206 181 191 220 236 236 231 232 262 341 352 10 37 37 43 57 40 8 356 358 4 6 5 5 6 5 2 1 360 354 353 357 3 2 0 2 4 4 2 1
47 63 54 313 116 133 173 171 158 219 250 266 265 226 191 190 240 228 180 150 105 57 66 170 211 55 39 21 16 321 276 265 92 83 254 236 181 143 184 234 236 224 220 235 234 216 210 194 174 185 219 238 235 229 237 281 343 7 71 79 66 73 80 53 23 15 14 13 10 6 5 6 5 3 3 1 359 1 3 2 359 358 0 2 3 3 1
62 78 35 319 130 134 135 133 203 218 223 226 221 205 191 204 218 187 160 137 109 103 167 179 91 73 54 268 241 146 33 10 1 284 251 235 198 177 196 220 227 208 202 226 236 220 206 196 188 190 202 216 223 229 240 237 208 164 128 107 96 92 81 53 34 27 22 17 12 6 4 5 6 6 7 9 10 8 2 354 352 355 359 1 1 0 360